Date,TemperatureHighF,TemperatureAvgF,TemperatureLowF,DewpointHighF,DewpointAvgF,DewpointLowF,HumidityHigh,HumidityAvg,HumidityLow,PressureMaxIn,PressureMinIn,WindSpeedMaxMPH,WindSpeedAvgMPH,GustSpeedMaxMPH,PrecipitationSumIn
2013-8-1,73.0,58.7,46.0,51.0,42.4,30.0,100,62,22,0.00,40.00,16,8,25,0.09
2013-8-2,76.0,55.0,36.0,44.0,38.5,28.0,97,62,17,0.00,40.00,10,6,18,0.01
2013-8-3,82.0,64.3,44.0,44.0,38.6,24.0,87,47,12,0.00,40.00,11,6,17,0.00
2013-8-4,87.0,68.1,51.0,45.0,41.8,30.0,73,43,13,0.00,40.00,10,5,18,0.00
2013-8-5,86.0,69.5,53.0,47.0,44.0,41.0,71,43,21,0.00,40.00,11,6,17,0.00
2013-8-6,89.0,70.2,50.0,50.0,44.9,34.0,78,45,14,0.00,40.00,8,6,15,0.00
2013-8-7,71.0,63.3,57.0,55.0,46.9,44.0,78,56,41,0.00,40.00,10,5,32,0.14
2013-8-8,76.0,60.8,46.0,46.0,42.5,38.0,87,56,27,0.00,40.00,8,5,16,0.05
2013-8-9,73.0,60.4,45.0,49.0,41.1,36.0,84,52,28,0.00,40.00,8,4,16,0.00
2013-8-10,72.0,60.1,45.0,50.0,44.4,36.0,86,59,28,0.00,40.00,11,5,18,0.00
2013-8-11,78.0,62.4,44.0,47.0,42.9,33.0,91,54,20,0.00,40.00,10,6,18,0.00
2013-8-12,81.0,64.5,47.0,49.0,44.7,40.0,92,53,23,0.00,40.00,12,6,21,0.00
2013-8-13,86.0,66.2,47.0,48.0,41.9,-99.9,86,49,16,0.00,40.00,10,6,18,0.00
2013-8-14,87.0,67.3,50.0,52.0,42.7,-99.9,87,48,16,0.00,40.00,12,5,17,0.00
2013-8-15,87.0,60.6,47.0,47.0,28.1,-99.9,71,41,16,0.00,40.00,13,5,20,0.00
2013-8-16,85.0,66.3,51.0,52.0,44.8,-99.9,81,53,24,0.00,40.00,12,6,18,0.00
2013-8-17,85.0,69.1,53.0,57.0,50.5,48.0,91,56,29,0.00,40.00,12,6,23,0.00
2013-8-18,90.0,69.7,49.0,52.0,46.5,37.0,92,51,16,0.00,40.00,12,6,18,0.00
2013-8-21,89.0,73.4,57.0,49.0,35.2,25.0,43,26,15,0.00,40.00,8,5,16,0.00
2013-8-22,75.0,59.9,48.0,52.0,48.5,45.0,98,69,41,0.00,40.00,9,4,47,0.10
2013-8-23,78.0,59.2,41.0,54.0,45.5,41.0,100,68,28,0.00,40.00,10,5,16,0.01
2013-8-24,78.0,60.5,47.0,52.0,47.7,40.0,97,68,26,0.00,40.00,9,4,18,0.03
2013-8-25,71.0,55.5,51.0,52.0,50.0,46.0,98,83,42,0.00,40.00,20,5,35,0.29
2013-8-26,73.0,58.1,46.0,54.0,46.8,39.0,100,72,30,0.00,40.00,13,6,22,0.12
2013-8-27,70.0,50.0,41.0,46.0,42.8,40.0,96,79,42,0.00,40.00,7,5,11,0.01
2013-8-28,82.0,73.0,60.0,49.0,41.0,34.0,66,35,20,0.00,40.00,10,7,19,0.00
2013-8-29,78.0,65.6,53.0,51.0,45.0,41.0,77,50,28,0.00,40.00,14,6,26,0.00
2013-8-30,83.0,64.7,45.0,52.0,45.4,32.0,97,57,16,0.00,40.00,9,5,15,0.00
2013-8-31,87.0,67.7,50.0,53.0,45.2,41.0,86,51,21,0.00,40.00,9,6,16,0.00